Regional Weather Roundup
Issued by NWS State College, PA

Home | Current Version | Previous Version | Text Only | Print | Product List | Glossary On
Versions: 1 2 3 4 5 6 7 8 9 10 11 12 13 14 15 16 17 18 19 20 21 22 23 24 25 26 27 28 29 30 31 32 33 34 35 36 37 38 39 40 41 42 43 44 45 46 47 48 49 50
000
ASUS41 KCTP 200010
RWRCTP

REGIONAL WEATHER ROUNDUP
NATIONAL WEATHER SERVICE STATE COLLEGE PA
800 PM EDT THU APR 19 2018

Note: "fair" indicates few or no clouds below 12,000 feet with no
significant weather and/or obstructions to visibility.

* = STATION THAT DOES NOT REPORT PRECIPITATION /E.G. RAIN...SNOW...ETC/
    THUNDER OR FOG.

PAZ002>004-007>009-013>016-020>023-029>032-200100-
WESTERN PENNSYLVANIA

CITY           SKY/WX    TMP DP  RH WIND       PRES   REMARKS
ERIE           FAIR      36  26  67 NW13      30.20R
MEADVILLE      FAIR      33  24  69 NW13G23   30.16R
FRANKLIN*      FAIR      33  20  58 NW12G20   30.15R
NEW CASTLE     FAIR      37  28  70 N8        30.20R
BEAVER COUNTY  CLEAR     39  25  56 NW7       30.17R
BUTLER*        FAIR      37  25  61 NW8       30.17R
PITTSBURGH INT FAIR      42  24  49 NW14      30.16R
PITTSBURGH     FAIR      40  23  50 NW15G26   30.15R
INDIANA*       PTCLDY    36  23  60 NW10G26   30.17R
LATROBE        NOT AVBL
WASHINGTON CO* FAIR      42  24  49 NW8       30.20R
$$

PAZ004>006-010>012-017>019-024>028-033>037-041-042-045-046-049>053-200100-
CENTRAL PENNSYLVANIA

CITY           SKY/WX    TMP DP  RH WIND       PRES   REMARKS
BRADFORD       LGT SNOW  31  23  72 W15G26    30.04R
DUBOIS         MOCLDY    31  22  69 W17G29    30.08R
CLEARFIELD     CLOUDY    35  24  64 W16G22    30.07R
JOHNSTOWN      CLOUDY    33  22  63 NW17G30   30.07R
ALTOONA        FAIR      38  23  55 NW20G26   30.06R
STATE COLLEGE  CLOUDY    36  25  64 NW13G20   30.06R
WILLIAMSPORT   CLOUDY    39  24  55 W14       30.03R
SELINSGROVE    CLOUDY    39  24  55 W6G20     30.06R
FT INDIANTOWN  CLOUDY    40  24  53 W12G17    30.04R
CAPITAL CITY   CLOUDY    43  24  47 NW12      30.07R
HARRISBURG     CLOUDY    41  24  51 NW15G26   30.05R
YORK           CLOUDY    40  26  57 NW15      30.07R
$$

PAZ038>040-043-044-047-048-054-055-060>062-067>071-200100-
EASTERN PENNSYLVANIA

CITY           SKY/WX    TMP DP  RH WIND       PRES   REMARKS
SCRANTON       FLURRIES  35  30  82 NW13      29.98R
MOUNT POCONO   FLURRIES  30  26  85 NW20G30   29.89R
ALLENTOWN      FAIR      41  26  55 W10G20    29.97R
QUAKERTOWN*    PTCLDY    39  27  60 VRB6G15   29.98R
READING        MOCLDY    40  26  57 NW16      30.01R
LANCASTER      CLOUDY    41  25  53 NW14G24   30.04R
COATESVILLE    CLOUDY    39  25  56 NW21G31   30.02R
POTTSTOWN      FAIR      39  24  55 NW12G24   30.01R
BLUE BELL      CLOUDY    41  32  70 NW12G17   30.00R
DOYLESTOWN     FAIR      40  29  64 NW16G28   29.96R
WILLOW GROVE   NOT AVBL
NORTH PHILA    CLOUDY    45  29  53 NW20G33   29.98R
PHILADELPHIA   CLOUDY    45  26  47 NW21G26   29.99R
$$




USA.gov is the U.S. government's official web portal to all federal, state and local government web resources and services.